Location: Cicognara
(44.9500°N, 10.4667°E)
Time: 08:44:21
(UTC+00:00)

Cosmos 2100 Rocket - Pass Details

Date: 20 June 2021
Orbit: 955 x 1001 km, 82.9° (Epoch: 04 August)

Event Time Altitude Azimuth Distance (km) Brightness Sun altitude
Rises 19:55:17 0° 354° (N) 3,734 7.9 -7.3°
Reaches altitude 10° 19:57:52 10° 358° (N) 2,777 7.1 -7.6°
Maximum altitude 20:04:12 63° 79° (ENE) 1,103 4.2 -8.4°
Drops below altitude 10° 20:10:25 10° 160° (SSE) 2,733 5.8 -9.1°
Enters shadow 20:10:49 - 161° (SSE) 2,881 5.9 -9.2°
